ISS (ZARYA) 1 25544U 98067A 26151.48489022 .00011339 00000+0 20972-3 0 9991 2 25544 51.6337 22.7846 0007232 117.9598 242.2123 15.49521498569161 POISK 1 36086U 09060A 26151.48489022 .00011339 00000+0 20972-3 0 9999 2 36086 51.6337 22.7846 0007232 117.9598 242.2123 15.49521498569164 CSS (TIANHE) 1 48274U 21035A 26151.46475744 .00021984 00000+0 26643-3 0 9999 2 48274 41.4695 63.7145 0010377 315.1880 44.8120 15.60057981290558 ISS (NAUKA) 1 49044U 21066A 26151.48489022 .00011339 00000+0 20972-3 0 9997 2 49044 51.6337 22.7846 0007232 117.9598 242.2123 15.49521498569207 FREGAT DEB 1 49271U 11037PF 26151.14915701 .00018955 00000+0 30994-1 0 9991 2 49271 51.6227 53.0895 0914379 245.3590 104.9405 12.41880577222933 CSS (WENTIAN) 1 53239U 22085A 26150.95261966 .00020206 00000+0 24547-3 0 9991 2 53239 41.4694 66.8282 0010503 312.1056 47.8889 15.60034833288231 CSS (MENGTIAN) 1 54216U 22143A 26151.46475744 .00021984 00000+0 26643-3 0 9993 2 54216 41.4695 63.7145 0010377 315.1880 44.8120 15.60057981290810 HRC MONOBLOCK CAMERA 1 66052U 98067XR 26150.98187219 .00072894 00000+0 55955-3 0 9999 2 66052 51.6257 7.3809 0002675 132.5466 227.5758 15.71393935 35292 SZ-21 MODULE 1 66515U 25246C 26150.97584426 .00049255 00000+0 32337-3 0 9996 2 66515 41.4744 54.3993 0006760 249.7160 110.2957 15.74843372 31025 SOYUZ-MS 28 1 66664U 25275A 26151.48489022 .00011339 00000+0 20972-3 0 9990 2 66664 51.6337 22.7846 0007232 117.9598 242.2123 15.49521498569282 DUPLEX 1 66906U 98067XS 26150.96961998 .00045324 00000+0 52726-3 0 9990 2 66906 51.6282 16.3341 0005162 129.3209 230.8243 15.61234176 27963 ISS OBJECT XY 1 66912U 98067XY 26150.89962672 .00301542 00000+0 11560-2 0 9996 2 66912 51.6220 5.2622 0004987 210.3165 149.7551 15.86037337 28099 KNACKSAT-2 1 67683U 98067XZ 26150.85297455 .00050677 00000+0 65668-3 0 9997 2 67683 51.6302 21.5644 0011151 139.9826 220.1990 15.58292004 17577 CORAL 1 67684U 98067YA 26148.88572086 .00179461 00000+0 14468-2 0 9998 2 67684 51.6266 27.1529 0012180 140.2856 219.9035 15.69710628 17320 GXIBA-1 1 67685U 98067YB 26150.87134588 .00059069 00000+0 72651-3 0 9992 2 67685 51.6293 20.9345 0012779 138.6058 221.5906 15.59582958 17583 UITMSAT-2 1 67686U 98067YC 26151.04344006 .00082793 00000+0 91845-3 0 9997 2 67686 51.6285 19.0843 0008888 127.0117 233.1691 15.62177730 17628 LEOPARD 1 67687U 98067YD 26151.21165168 .00072985 00000+0 91163-3 0 9992 2 67687 51.6312 19.4674 0008937 122.7023 237.4833 15.59137359 17555 HMU-SAT2 1 67688U 98067YE 26151.01788700 .00071767 00000+0 83584-3 0 9999 2 67688 51.6297 19.6694 0008887 124.4336 235.7499 15.60978565 17533 CREW DRAGON 12 1 67796U 26031A 26151.48489022 .00011339 00000+0 20972-3 0 9998 2 67796 51.6337 22.7846 0007232 117.9598 242.2123 15.49521498569245 PROGRESS-MS 33 1 68319U 26058A 26151.48489022 .00011339 00000+0 20972-3 0 9999 2 68319 51.6337 22.7846 0007232 117.9598 242.2123 15.49521498569326 CYGNUS NG-24 1 68689U 26079A 26150.83995331 .00011335 00000+0 20978-3 0 9997 2 68689 51.6338 25.9780 0007215 115.7878 244.3856 15.49504954569264 PROGRESS-MS 34 1 68837U 26093A 26150.83995331 .00011335 00000+0 20978-3 0 9998 2 68837 51.6338 25.9780 0007215 115.7878 244.3856 15.49504954569304 TIANZHOU-10 1 69049U 26102A 26150.95261966 .00020206 00000+0 24547-3 0 9991 2 69049 41.4694 66.8282 0010503 312.1056 47.8889 15.60034833 3322 DRAGON CRS-34 1 69103U 26107A 26151.48489022 .00011339 00000+0 20972-3 0 9996 2 69103 51.6337 22.7846 0007232 117.9598 242.2123 15.49521498569441 SHENZHOU-23 (SZ-23) 1 69180U 26113A 26150.95261966 .00020206 00000+0 24547-3 0 9999 2 69180 41.4694 66.8282 0010503 312.1056 47.8889 15.60034833290461